Snowfall_Accumulation
0.0 0.0 0.0 0.0 0.0 0.0 0.0 0.0 0.0 0.0 0.0 0.0 0.0 0.0 0.0 0.0 0.0 0.0 0.0 0.0 0.0 0.0 0.0 0.0 0.0 0.0 0.0 0.0 0.0 0.0 0.0 0.0 0.0 0.0 0.0 0.0 0.0 0.0
0.0 0.0 0.0 0.0 0.0 0.0 0.0 0.0 0.0 0.0 0.0 0.0 0.0 0.0 0.0 0.0 0.0 0.0 0.0 0.0 0.0 0.0 0.0 0.0 0.0 0.0 0.0 0.0 0.0 0.0 0.0 0.0 0.0 0.0 0.0 0.0 0.0 0.0
0.0 0.0 0.0 0.0 0.0 0.0 0.0 0.0 0.1 0.4 0.0 0.2 0.1 0.5 0.3 0.0 0.0 0.0 0.0 0.0 0.0 0.0 0.0 0.0 0.0 0.0 0.0 0.0 0.0 0.0 0.0 0.0 0.0 0.0 0.0 0.0 0.0 0.0
0.0 0.0 0.0 0.0 0.0 0.0 0.0 0.2 0.6 0.3 0.2 0.9 0.6 0.3 0.1 0.0 0.0 0.0 0.0 0.1 0.0 0.0 0.0 0.0 0.0 0.0 0.0 0.0 0.0 0.0 0.0 0.0 0.0 0.0 0.0 0.0 0.0 0.0
0.0 0.0 0.0 0.0 0.0 0.0 0.9 0.6 0.2 0.7 0.5 0.6 0.2 0.0 0.0 0.6 0.0 0.0 0.0 0.0 0.0 0.0 0.0 0.0 0.0 0.0 0.0 0.0 0.0 0.0 0.0 0.0 0.0 0.0 0.0 0.0 0.0 0.0
0.0 0.0 0.0 0.3 0.2 0.6 0.4 0.6 0.3 0.5 0.2 0.2 0.4 0.7 0.3 0.0 0.2 0.0 0.0 0.0 0.0 0.0 0.0 0.0 0.0 0.0 0.0 0.0 0.0 0.0 0.0 0.0 0.0 0.0 0.0 0.0 0.0 0.0
0.0 1.6 1.3 1.0 0.5 0.7 0.5 0.2 0.2 0.1 1.3 2.9 2.2 2.2 0.1 0.0 0.0 0.0 0.0 0.0 0.2 0.0 0.0 0.0 0.0 0.0 0.0 0.0 0.0 0.0 0.0 0.0 0.0 0.0 0.0 0.0 0.0 0.0
2.3 2.2 1.1 0.4 0.2 0.0 0.0 0.0 0.0 0.5 3.0 4.5 3.0 0.5 0.0 0.0 0.0 0.1 2.0 2.1 1.7 0.0 0.0 0.1 0.0 0.0 0.0 0.0 0.0 0.0 0.0 0.0 0.0 0.0 0.0 0.0 0.0 0.0
1.3 0.8 0.7 0.1 0.2 0.1 0.0 0.0 0.3 0.3 0.5 0.3 0.3 0.2 0.3 0.1 3.0 3.6 1.4 2.1 1.2 0.0 0.2 0.4 0.0 0.0 0.0 0.0 0.0 0.0 0.0 0.0 0.0 0.0 0.0 0.0 0.0 0.0
0.2 0.1 0.0 0.0 0.0 0.1 0.1 1.8 0.9 0.0 0.0 0.0 0.0 0.2 0.7 0.2 0.3 0.7 1.0 1.1 0.5 0.0 0.0 2.4 0.0 0.1 0.0 0.0 0.0 0.0 0.0 0.0 0.0 0.0 0.0 0.0 0.0 0.0
0.0 0.0 0.0 0.1 0.0 0.0 1.2 1.3 0.1 0.0 0.0 0.0 0.2 0.1 0.0 0.0 0.0 1.6 3.3 3.8 2.4 0.1 0.0 1.2 0.4 0.2 0.0 0.0 0.0 0.0 0.0 0.0 0.0 0.0 0.0 0.0 0.0 0.0
0.0 0.0 0.0 0.1 0.0 0.4 0.4 0.1 0.7 0.0 1.0 0.6 0.0 0.0 0.0 0.0 0.0 0.2 4.0 12.0 5.7 3.7 0.0 4.4 1.2 1.2 5.6 0.0 0.0 0.0 0.0 0.0 0.0 0.0 0.0 0.1 0.0 0.4
0.5 0.0 0.0 0.1 0.5 0.0 0.0 0.0 0.2 0.1 0.1 0.0 0.0 0.0 0.0 0.0 0.1 0.1 1.6 9.9 15.4 9.4 0.0 8.8 10.8 2.3 8.1 3.6 2.5 2.5 1.7 1.1 1.5 2.0 1.9 1.2 0.9 1.0
0.2 0.0 0.1 0.8 0.0 0.0 0.0 0.1 0.1 0.1 0.0 0.1 0.1 0.2 0.2 0.3 0.2 0.3 0.4 1.7 3.6 8.9 3.2 4.6 19.0 7.0 12.6 8.9 5.3 5.9 4.4 5.3 7.5 8.0 9.3 2.5 1.0 0.6
0.1 0.5 0.5 0.0 0.0 0.0 0.0 0.0 0.0 0.0 0.3 1.7 1.1 0.5 0.2 0.1 0.4 0.6 0.8 1.3 2.0 2.9 3.8 4.1 9.5 9.8 13.0 12.7 8.0 5.3 7.5 6.9 6.5 7.7 6.4 6.5 5.0 3.2
0.6 1.3 0.0 0.0 0.0 0.0 0.0 0.0 0.0 0.1 1.1 2.9 2.5 0.7 0.1 0.5 0.8 1.4 4.7 3.4 5.4 3.3 3.9 4.8 7.0 9.2 11.3 7.1 8.5 7.5 7.3 11.8 8.5 7.3 5.9 6.7 2.0 1.4
0.3 0.0 0.0 0.0 0.0 0.0 0.0 0.0 0.0 0.0 0.9 0.9 2.3 2.2 0.9 0.7 2.8 3.1 5.8 9.3 12.7 7.9 8.0 6.8 5.4 3.5 4.3 6.5 8.2 6.5 7.6 7.9 9.4 8.4 6.1 8.8 5.4 1.1
0.0 0.0 0.1 0.2 0.2 0.1 0.1 0.1 0.0 0.1 0.9 2.6 2.9 2.1 5.5 5.3 7.2 7.7 9.6 12.3 12.8 9.9 10.7 9.4 7.8 7.3 6.5 6.1 5.5 10.9 8.7 9.5 9.6 7.0 5.2 7.6 8.3 3.8
0.0 0.3 0.4 0.2 0.1 0.1 0.2 0.8 1.2 0.5 2.1 4.1 5.2 6.0 8.5 7.4 7.3 9.2 9.9 10.5 10.9 8.7 7.4 5.8 7.9 11.2 13.7 7.4 5.1 4.3 14.8 11.2 7.8 6.7 3.7 4.0 6.8 5.3
0.2 0.4 0.3 0.2 0.1 0.8 1.4 2.2 2.4 1.4 3.4 4.5 7.1 7.8 9.5 11.3 9.8 9.7 9.3 11.5 11.1 6.9 4.5 3.0 3.7 8.7 17.7 14.9 11.6 8.8 5.5 10.1 8.9 8.7 7.0 4.1 3.4 0.1
0.4 0.3 0.2 0.3 0.6 2.0 2.8 4.3 3.9 6.9 9.1 11.0 9.3 10.5 9.6 12.5 10.0 7.3 8.8 6.4 5.9 5.7 5.1 2.1 2.0 2.2 5.4 7.2 9.5 5.2 6.2 3.5 2.9 7.8 7.2 6.7 4.2 2.3
0.6 0.7 0.2 0.7 2.9 4.3 6.1 6.0 7.8 6.9 8.8 8.5 9.0 9.8 10.3 11.2 12.3 9.2 6.4 7.4 4.8 3.7 4.4 2.6 2.8 4.0 4.7 6.7 5.1 3.4 3.5 2.8 1.7 1.1 1.0 3.4 10.7 15.3
1.0 1.7 2.4 2.5 3.9 5.5 7.0 7.4 7.6 7.3 8.3 10.2 10.9 10.9 10.6 11.0 6.7 6.2 6.3 6.1 6.4 6.3 4.3 4.1 3.2 2.6 2.6 4.2 5.0 4.3 2.1 2.1 1.8 1.7 2.9 1.1 1.1 1.4